Location: Fiddletown
(38.4917°N, 120.6633°W)
Time: 15:17:03
(UTC-07:00)

Envisat - Visible Passes

Search period start: 22 September 2014 00:00
Search period end: 02 October 2014 00:00
Orbit: 765 x 767 km, 98.4° (Epoch: 22 September)

Date Brightness Start Highest point End Pass type
(mag) Time Alt. Az. Time Alt. Az. Time Alt. Az.
22 Sep 5.3 22:05:22 17° N 22:05:22 17° N 22:06:33 10° N visible
23 Sep 5.2 21:28:31 14° NNE 21:28:31 14° NNE 21:29:22 10° NNE visible
23 Sep 6.0 23:08:45 10° NNW 23:08:45 10° NNW 23:08:47 10° NNW visible
24 Sep 5.6 22:31:53 14° NNW 22:31:53 14° NNW 22:32:35 10° NNW visible
25 Sep 5.4 21:55:02 14° N 21:55:02 14° N 21:55:50 10° N visible
26 Sep 5.4 21:18:11 11° NNE 21:18:11 11° NNE 21:18:25 10° NNE visible
27 Sep 5.7 22:21:33 12° N 22:21:33 12° N 22:21:59 10° N visible
28 Sep 5.5 21:44:42 12° N 21:44:42 12° N 21:45:04 10° N visible
30 Sep 5.8 22:11:12 11° N 22:11:12 11° N 22:11:19 10° N visible
